Adlanz, Germany

6:57 PM CET on February 21, 2017 (GMT +0100)
Hof-Plauen

Weather History for EDQM - November, 2012

Change the Weather History Date:

Friday, November 23, 2012

  Actual Average Record
Temperature  
Mean Temperature 36 °F -  
Max Temperature 41 °F 33 °F 48 °F (2011)
Min Temperature 32 °F 27 °F 24 °F (1998)
Degree Days  
Heating Degree Days 28    
Moisture  
Dew Point 36 °F    
Average Humidity 94    
Maximum Humidity 100    
Minimum Humidity 87    
Precipitation  
Precipitation 0.00 in - - ()
Sea Level Pressure  
Sea Level Pressure 30.15 in    
Wind  
Wind Speed 6 mph ()    
Max Wind Speed 14 mph    
Max Gust Speed -    
Visibility 2.2 miles    
Events Fog , Rain    
Averages and records for this station are not official NWS values.
T = Trace of Precipitation, MM = Missing Value Source: Averaged Metar Reports

Daily Weather History Graph

Daily Weather History Graph

Search for Another Location

Airport or City:

Trip Planner

Search our weather history database for the weather conditions in past years. The results will help you decide how hot, cold, wet, or windy it might be!

Date:

Astronomy

Nov. 23, 2012 Rise Set
Actual Time 7:39 AM CET 4:18 PM CET
Civil Twilight 7:02 AM CET 4:54 PM CET
Nautical Twilight 6:22 AM CET 5:35 PM CET
Astronomical Twilight 5:43 AM CET 6:14 PM CET
Moon 1:47 PM CET (11/23) 2:15 AM CET (11/23)
Length of Visible Light 9h 52m
Length of Day
8h 38m
Waxing Gibbous, 77% of the Moon is Illuminated
Nov 23
Waxing Gibbous
Nov 28
Full
Dec 6
Last Quarter
Dec 13
New
Dec 20
First Quarter

Hourly Weather History & Observations

Time (CET) Temp. Windchill Dew Point Humidity Pressure Visibility Wind Dir Wind Speed Gust Speed Precip Events Conditions
12:00 AM 33 °F - 33 °F 100% 30.27 in 1 mi SE 2.2 mph - -   Mist
12:20 AM 33.8 °F - 30.2 °F 87% 30.18 in 0.7 mi Variable 2.3 mph - N/A   Overcast
12:50 AM 33.8 °F 28.6 °F 32.0 °F 93% 30.18 in 1.1 mi SSE 5.8 mph - N/A   Overcast
1:00 AM 35 °F - 35 °F 98% 30.25 in 1 mi SSE 6.7 mph - -   Mist
1:20 AM 33.8 °F - 32.0 °F 93% 30.18 in 0.6 mi Variable 2.3 mph - N/A Fog Fog
1:50 AM 33.8 °F 30.8 °F 32.0 °F 93% 30.18 in 0.6 mi South 3.5 mph - N/A Fog Fog
2:00 AM 35 °F - 35 °F 100% 30.25 in 1 mi South 4.5 mph - -   Mist
2:20 AM 33.8 °F 29.6 °F 32.0 °F 93% 30.18 in - South 4.6 mph - N/A Fog Fog
2:50 AM 35.6 °F 29.9 °F 33.8 °F 93% 30.18 in - SSW 6.9 mph - N/A Fog Fog
3:00 AM 35 °F - 35 °F 97% 30.25 in 0 mi SW 4.5 mph - - Fog Fog
3:20 AM 35.6 °F 32.8 °F 33.8 °F 93% 30.18 in 0.5 mi South 3.5 mph - N/A Fog Fog
3:50 AM 35.6 °F 32.8 °F 33.8 °F 93% 30.15 in 0.2 mi SSE 3.5 mph - N/A Fog Fog
4:20 AM 35.6 °F 31.7 °F 33.8 °F 93% 30.15 in 0.2 mi SSE 4.6 mph - N/A Fog Fog
4:50 AM 35.6 °F 29.9 °F 33.8 °F 93% 30.15 in 0.4 mi SSE 6.9 mph - N/A Fog Fog
5:00 AM 36 °F - 36 °F 100% 30.21 in 1 mi SSE 6.7 mph - - Fog Fog
5:20 AM 35.6 °F 31.7 °F 33.8 °F 93% 30.15 in 1.2 mi South 4.6 mph - N/A   Overcast
5:50 AM 35.6 °F 29.2 °F 33.8 °F 93% 30.12 in 1.1 mi South 8.1 mph - N/A   Overcast
6:00 AM 36 °F - 36 °F 99% 30.21 in 2 mi South 8.9 mph - -   Mist
6:20 AM 35.6 °F 29.9 °F 33.8 °F 93% 30.12 in 1.2 mi South 6.9 mph - N/A   Overcast
6:50 AM 35.6 °F 30.7 °F 33.8 °F 93% 30.12 in 0.9 mi South 5.8 mph - N/A Fog Fog
7:00 AM 36 °F - 36 °F 100% 30.21 in 2 mi South 6.7 mph - -   Mist
7:20 AM 35.6 °F 30.7 °F 33.8 °F 93% 30.12 in 0.6 mi South 5.8 mph - N/A Fog Fog
7:50 AM 35.6 °F 29.9 °F 33.8 °F 93% 30.12 in 0.7 mi SSW 6.9 mph - N/A   Overcast
8:00 AM 36 °F - 36 °F 100% 30.20 in 2 mi South 6.7 mph - -   Mist
8:20 AM 35.6 °F 30.7 °F 33.8 °F 93% 30.12 in 0.7 mi South 5.8 mph - N/A   Overcast
8:50 AM 35.6 °F 30.7 °F 33.8 °F 93% 30.12 in 0.7 mi SSW 5.8 mph - N/A   Overcast
9:00 AM 37 °F - 37 °F 98% 30.20 in 1 mi South 6.7 mph - -   Mist
9:20 AM 37.4 °F 32.1 °F 35.6 °F 93% 30.12 in 0.9 mi SSW 6.9 mph - N/A   Overcast
9:50 AM 37.4 °F 32.1 °F 35.6 °F 93% 30.15 in 1.9 mi South 6.9 mph - N/A   Overcast
10:20 AM 37.4 °F 32.8 °F 35.6 °F 93% 30.15 in 3.1 mi South 5.8 mph - N/A   Overcast
10:50 AM 37.4 °F 32.1 °F 35.6 °F 93% 30.12 in - South 6.9 mph - N/A   Overcast
11:00 AM 38 °F - 38 °F 100% 30.19 in 3 mi South 6.7 mph - -   Mist
11:20 AM 39.2 °F 34.2 °F 37.4 °F 93% 30.12 in 3.7 mi South 6.9 mph - N/A   Overcast
11:50 AM 39.2 °F 33.0 °F 37.4 °F 93% 30.09 in 3.7 mi SSE 9.2 mph - N/A   Overcast
12:00 PM 39 °F - 38 °F 97% 30.17 in 5 mi SSE 8.9 mph - -   Overcast
12:20 PM 39.2 °F 33.6 °F 37.4 °F 93% 30.09 in 6.2 mi South 8.1 mph - N/A   Overcast
12:50 PM 39.2 °F 33.0 °F 37.4 °F 93% 30.09 in 5.6 mi South 9.2 mph - N/A   Overcast
1:00 PM 40 °F - 39 °F 93% 30.16 in 7 mi South 6.7 mph - -   Overcast
1:20 PM 41.0 °F 34.7 °F 37.4 °F 87% 30.12 in 5.0 mi South 10.4 mph - N/A   Light Drizzle
1:50 PM 39.2 °F 32.5 °F 37.4 °F 93% 30.09 in 3.7 mi South 10.4 mph - N/A   Drizzle
2:00 PM 40 °F - 39 °F 94% 30.15 in 4 mi South 8.9 mph - - Rain Light Drizzle
2:20 PM 39.2 °F 31.2 °F 37.4 °F 93% 30.09 in 3.1 mi SSW 13.8 mph - N/A   Drizzle
2:50 PM 39.2 °F 32.0 °F 37.4 °F 93% 30.09 in 5.0 mi SSW 11.5 mph - N/A   Mostly Cloudy
3:00 PM 40 °F - 38 °F 88% 30.16 in 4 mi SSW 8.9 mph - - Rain Light Drizzle
3:20 PM 39.2 °F 33.0 °F 37.4 °F 93% 30.09 in 2.8 mi SSW 9.2 mph - N/A   Overcast
3:50 PM 39.2 °F 33.6 °F 37.4 °F 93% 30.09 in 2.8 mi South 8.1 mph - N/A   Overcast
4:20 PM 39.2 °F 33.6 °F 37.4 °F 93% 30.12 in 2.5 mi SSW 8.1 mph - N/A   Mostly Cloudy
4:50 PM 39.2 °F 33.6 °F 37.4 °F 93% 30.09 in 1.7 mi South 8.1 mph - N/A   Overcast
5:20 PM 39.2 °F 34.2 °F 37.4 °F 93% 30.09 in - South 6.9 mph - N/A   Overcast
5:50 PM 39.2 °F 33.6 °F 37.4 °F 93% 30.12 in 2.5 mi SSW 8.1 mph - N/A   Overcast
6:00 PM 40 °F - 38 °F 91% 30.17 in 4 mi South 6.7 mph - -   Mist
6:20 PM 39.2 °F 34.2 °F 37.4 °F 93% 30.12 in - South 6.9 mph - N/A   Overcast
6:50 PM 39.2 °F 33.6 °F 37.4 °F 93% 30.12 in - SSW 8.1 mph - N/A   Scattered Clouds
7:00 PM 39 °F - 38 °F 95% 30.18 in 3 mi South 6.7 mph - -   Mist
7:20 PM 39.2 °F 33.6 °F 37.4 °F 93% 30.12 in - SSW 8.1 mph - N/A   Partly Cloudy
7:50 PM 39.2 °F 34.2 °F 37.4 °F 93% 30.12 in - South 6.9 mph - N/A   Mostly Cloudy
8:00 PM 39 °F - 38 °F 95% 30.18 in 3 mi South 6.7 mph - -   Mist
8:20 PM 39.2 °F 34.2 °F 37.4 °F 93% 30.12 in - South 6.9 mph - N/A   Mostly Cloudy
8:50 PM 39.2 °F 33.0 °F 37.4 °F 93% 30.12 in 1.7 mi SSW 9.2 mph - N/A   Mostly Cloudy
9:00 PM 40 °F - 39 °F 93% 30.18 in 2 mi South 6.7 mph - -   Mist
9:20 PM 41.0 °F 34.7 °F 37.4 °F 87% 30.12 in - SSW 10.4 mph - N/A   Mostly Cloudy
9:50 PM 39.2 °F 33.6 °F 37.4 °F 93% 30.12 in - SSW 8.1 mph - N/A   Partly Cloudy
10:20 PM 39.2 °F 34.2 °F 37.4 °F 93% 30.12 in 1.9 mi South 6.9 mph - N/A   Mist
10:50 PM 39.2 °F 34.2 °F 37.4 °F 93% 30.12 in - South 6.9 mph - N/A   Mostly Cloudy
11:00 PM 40 °F - 39 °F 94% 30.19 in 2 mi South 6.7 mph - -   Mist
11:20 PM 39.2 °F 33.0 °F 37.4 °F 93% 30.12 in - South 9.2 mph - N/A   Overcast
11:50 PM 39.2 °F 33.0 °F 37.4 °F 93% 30.12 in - South 9.2 mph - N/A   Overcast